Time,TemperatureF,DewpointF,PressureIn,WindDirection,WindDirectionDegrees,WindSpeedMPH,WindSpeedGustMPH,Humidity,HourlyPrecipIn,Conditions,Clouds,dailyrainin,SoftwareType,DateUTC
2013-05-01 00:03:00,65.0,53.0,-100.00,SSE,150,6.0,12.0,65,0.00,,,-99.99,,2013-05-01 04:03:00,
2013-05-01 00:12:00,65.0,53.0,-100.00,SSE,150,7.0,11.0,65,0.00,,,-99.99,,2013-05-01 04:12:00,
2013-05-01 00:22:00,65.0,53.0,-100.00,SSE,160,5.0,12.0,66,0.00,,,-99.99,,2013-05-01 04:22:00,
2013-05-01 00:32:00,65.0,54.0,-100.00,SE,145,7.0,12.0,66,0.00,,,-99.99,,2013-05-01 04:32:00,
2013-05-01 00:43:00,64.0,53.0,-100.00,SE,145,6.0,12.0,67,0.00,,,-99.99,,2013-05-01 04:43:00,
2013-05-01 00:52:00,64.0,54.0,-100.00,SE,140,8.0,12.0,68,0.00,,,-99.99,,2013-05-01 04:52:00,
2013-05-01 01:02:00,64.0,54.0,-100.00,SSE,155,7.0,12.0,69,0.00,,,-99.99,,2013-05-01 05:02:00,
2013-05-01 01:11:00,64.0,54.0,-100.00,SSE,150,6.0,11.0,70,0.00,,,-99.99,,2013-05-01 05:11:00,
2013-05-01 01:21:00,63.0,54.0,-100.00,SSE,155,7.0,12.0,71,0.00,,,-99.99,,2013-05-01 05:21:00,
2013-05-01 01:32:00,63.0,54.0,-100.00,SE,145,4.0,12.0,72,0.00,,,-99.99,,2013-05-01 05:32:00,
2013-05-01 01:42:00,62.0,54.0,-100.00,SE,140,4.0,11.0,74,0.00,,,-99.99,,2013-05-01 05:42:00,
2013-05-01 01:52:00,62.0,54.0,-100.00,SSE,160,6.0,13.0,74,0.00,,,-99.99,,2013-05-01 05:52:00,
2013-05-01 02:02:00,62.0,54.0,-100.00,SE,140,5.0,11.0,75,0.00,,,-99.99,,2013-05-01 06:02:00,
2013-05-01 02:12:00,61.0,54.0,-100.00,SSE,155,4.0,10.0,76,0.00,,,-99.99,,2013-05-01 06:12:00,
2013-05-01 02:22:00,61.0,54.0,-100.00,SE,145,7.0,13.0,77,0.00,,,-99.99,,2013-05-01 06:22:00,
2013-05-01 02:32:00,61.0,54.0,-100.00,SSE,150,6.0,12.0,78,0.00,,,-99.99,,2013-05-01 06:32:00,
2013-05-01 02:42:00,61.0,54.0,-100.00,SSE,150,6.0,12.0,78,0.00,,,-99.99,,2013-05-01 06:42:00,
2013-05-01 02:51:00,60.0,54.0,-100.00,SE,145,7.0,13.0,79,0.00,,,-99.99,,2013-05-01 06:51:00,
2013-05-01 03:01:00,60.0,54.0,-100.00,SE,145,6.0,12.0,80,0.00,,,-99.99,,2013-05-01 07:01:00,
2013-05-01 03:11:00,59.0,54.0,-100.00,SSE,155,6.0,11.0,80,0.00,,,-99.99,,2013-05-01 07:11:00,
2013-05-01 03:22:00,59.0,54.0,-100.00,SE,140,6.0,12.0,81,0.00,,,-99.99,,2013-05-01 07:22:00,
2013-05-01 03:32:00,59.0,54.0,-100.00,SE,140,6.0,12.0,81,0.00,,,-99.99,,2013-05-01 07:32:00,
2013-05-01 03:42:00,59.0,53.0,-100.00,SSE,150,7.0,12.0,82,0.00,,,-99.99,,2013-05-01 07:42:00,
2013-05-01 03:52:00,58.0,54.0,-100.00,SSE,150,6.0,12.0,83,0.00,,,-99.99,,2013-05-01 07:52:00,
2013-05-01 04:02:00,58.0,54.0,-100.00,SSE,150,6.0,12.0,83,0.00,,,-99.99,,2013-05-01 08:02:00,
2013-05-01 04:12:00,58.0,53.0,-100.00,SSE,150,7.0,12.0,84,0.00,,,-99.99,,2013-05-01 08:12:00,
2013-05-01 04:22:00,58.0,53.0,-100.00,SE,145,7.0,12.0,84,0.00,,,-99.99,,2013-05-01 08:22:00,
2013-05-01 04:32:00,58.0,53.0,-100.00,SSE,150,5.0,12.0,85,0.00,,,-99.99,,2013-05-01 08:32:00,
2013-05-01 04:42:00,58.0,53.0,-100.00,SSE,160,7.0,12.0,85,0.00,,,-99.99,,2013-05-01 08:42:00,
2013-05-01 04:53:00,57.0,53.0,-100.00,SE,135,7.0,12.0,86,0.00,,,-99.99,,2013-05-01 08:53:00,
2013-05-01 05:01:00,57.0,53.0,-100.00,SE,135,7.0,12.0,86,0.00,,,-99.99,,2013-05-01 09:01:00,
2013-05-01 05:12:00,57.0,53.0,-100.00,SSE,155,8.0,14.0,86,0.00,,,-99.99,,2013-05-01 09:12:00,
2013-05-01 05:21:00,57.0,53.0,-100.00,SSE,155,7.0,13.0,86,0.00,,,-99.99,,2013-05-01 09:21:00,
2013-05-01 05:33:00,57.0,53.0,-100.00,SSE,150,7.0,14.0,86,0.00,,,-99.99,,2013-05-01 09:33:00,
2013-05-01 05:43:00,57.0,53.0,-100.00,SE,125,7.0,12.0,86,0.00,,,-99.99,,2013-05-01 09:43:00,
2013-05-01 05:53:00,57.0,53.0,-100.00,SE,130,9.0,14.0,86,0.00,,,-99.99,,2013-05-01 09:53:00,
2013-05-01 06:03:00,57.0,53.0,-100.00,SSE,150,7.0,13.0,86,0.00,,,-99.99,,2013-05-01 10:03:00,
2013-05-01 06:12:00,57.0,53.0,-100.00,SE,145,8.0,14.0,87,0.00,,,-99.99,,2013-05-01 10:12:00,
2013-05-01 06:22:00,56.0,53.0,-100.00,SE,140,6.0,11.0,88,0.00,,,-99.99,,2013-05-01 10:22:00,
2013-05-01 06:33:00,56.0,53.0,-100.00,ESE,115,7.0,14.0,88,0.00,,,-99.99,,2013-05-01 10:33:00,
2013-05-01 06:42:00,56.0,53.0,-100.00,SE,130,6.0,13.0,88,0.00,,,-99.99,,2013-05-01 10:42:00,
2013-05-01 06:52:00,56.0,53.0,-100.00,SE,140,6.0,12.0,88,0.00,,,-99.99,,2013-05-01 10:52:00,
2013-05-01 07:02:00,56.0,53.0,-100.00,SE,135,7.0,12.0,89,0.00,,,-99.99,,2013-05-01 11:02:00,
2013-05-01 07:11:00,56.0,53.0,-100.00,SSE,155,7.0,12.0,89,0.00,,,-99.99,,2013-05-01 11:11:00,
2013-05-01 07:22:00,56.0,53.0,-100.00,SSE,160,6.0,12.0,89,0.00,,,-99.99,,2013-05-01 11:22:00,
2013-05-01 07:32:00,57.0,53.0,-100.00,SE,140,7.0,12.0,88,0.00,,,-99.99,,2013-05-01 11:32:00,
2013-05-01 07:42:00,57.0,53.0,-100.00,SSE,150,9.0,13.0,87,0.00,,,-99.99,,2013-05-01 11:42:00,
2013-05-01 07:52:00,57.0,53.0,-100.00,SSE,160,7.0,13.0,86,0.00,,,-99.99,,2013-05-01 11:52:00,
2013-05-01 08:01:00,58.0,53.0,-100.00,SE,135,10.0,15.0,85,0.00,,,-99.99,,2013-05-01 12:01:00,
2013-05-01 08:11:00,58.0,54.0,-100.00,SE,130,6.0,17.0,84,0.00,,,-99.99,,2013-05-01 12:11:00,
2013-05-01 08:21:00,59.0,54.0,-100.00,SSE,155,7.0,15.0,83,0.00,,,-99.99,,2013-05-01 12:21:00,
2013-05-01 08:32:00,59.0,54.0,-100.00,SSE,150,7.0,12.0,81,0.00,,,-99.99,,2013-05-01 12:32:00,
2013-05-01 08:41:00,60.0,54.0,-100.00,SSE,150,7.0,12.0,80,0.00,,,-99.99,,2013-05-01 12:41:00,
2013-05-01 08:52:00,60.0,54.0,-100.00,SSE,155,10.0,14.0,78,0.00,,,-99.99,,2013-05-01 12:52:00,
2013-05-01 09:01:00,61.0,54.0,-100.00,SSE,150,9.0,13.0,77,0.00,,,-99.99,,2013-05-01 13:01:00,
2013-05-01 09:11:00,62.0,54.0,-100.00,SSE,155,8.0,16.0,75,0.00,,,-99.99,,2013-05-01 13:11:00,
2013-05-01 09:22:00,63.0,54.0,-100.00,South,175,11.0,17.0,73,0.00,,,-99.99,,2013-05-01 13:22:00,
2013-05-01 09:32:00,63.0,54.0,-100.00,South,175,11.0,17.0,73,0.00,,,-99.99,,2013-05-01 13:32:00,
2013-05-01 09:42:00,65.0,55.0,-100.00,SSE,155,6.0,16.0,70,0.00,,,-99.99,,2013-05-01 13:42:00,
2013-05-01 09:52:00,64.0,54.0,-100.00,SE,140,9.0,17.0,69,0.00,,,-99.99,,2013-05-01 13:52:00,
2013-05-01 10:02:00,65.0,55.0,-100.00,SE,145,7.0,17.0,68,0.00,,,-99.99,,2013-05-01 14:02:00,
2013-05-01 10:11:00,65.0,55.0,-100.00,SSE,150,10.0,16.0,68,0.00,,,-99.99,,2013-05-01 14:11:00,
2013-05-01 10:22:00,66.0,55.0,-100.00,South,175,10.0,15.0,67,0.00,,,-99.99,,2013-05-01 14:22:00,
2013-05-01 10:32:00,66.0,55.0,-100.00,SE,145,7.0,14.0,67,0.00,,,-99.99,,2013-05-01 14:32:00,
2013-05-01 10:42:00,68.0,56.0,-100.00,SSE,155,7.0,12.0,65,0.00,,,-99.99,,2013-05-01 14:42:00,
2013-05-01 10:51:00,67.0,55.0,-100.00,SSE,165,9.0,16.0,64,0.00,,,-99.99,,2013-05-01 14:51:00,
2013-05-01 11:01:00,68.0,56.0,-100.00,SSE,160,8.0,15.0,64,0.00,,,-99.99,,2013-05-01 15:01:00,
2013-05-01 11:11:00,69.0,56.0,-100.00,South,180,6.0,13.0,62,0.00,,,-99.99,,2013-05-01 15:11:00,
2013-05-01 11:21:00,69.0,56.0,-100.00,South,180,6.0,13.0,62,0.00,,,-99.99,,2013-05-01 15:21:00,
2013-05-01 11:33:00,72.0,57.0,-100.00,South,180,7.0,12.0,59,0.00,,,-99.99,,2013-05-01 15:33:00,
2013-05-01 11:43:00,71.0,56.0,-100.00,South,180,7.0,12.0,59,0.00,,,-99.99,,2013-05-01 15:43:00,
2013-05-01 11:53:00,72.0,57.0,-100.00,South,170,3.0,12.0,59,0.00,,,-99.99,,2013-05-01 15:53:00,
2013-05-01 12:03:00,72.0,57.0,-100.00,South,170,7.0,11.0,58,0.00,,,-99.99,,2013-05-01 16:03:00,
2013-05-01 12:12:00,72.0,57.0,-100.00,South,170,7.0,11.0,58,0.00,,,-99.99,,2013-05-01 16:12:00,
2013-05-01 12:22:00,73.0,57.0,-100.00,SSE,165,4.0,13.0,56,0.00,,,-99.99,,2013-05-01 16:22:00,
2013-05-01 12:32:00,74.0,57.0,-100.00,South,190,7.0,11.0,55,0.00,,,-99.99,,2013-05-01 16:32:00,
2013-05-01 12:42:00,75.0,57.0,-100.00,South,170,6.0,12.0,54,0.00,,,-99.99,,2013-05-01 16:42:00,
2013-05-01 12:53:00,75.0,57.0,-100.00,SW,225,3.0,11.0,53,0.00,,,-99.99,,2013-05-01 16:53:00,
2013-05-01 13:02:00,75.0,57.0,-100.00,South,175,6.0,12.0,53,0.00,,,-99.99,,2013-05-01 17:02:00,
2013-05-01 13:12:00,75.0,57.0,-100.00,South,175,6.0,12.0,53,0.00,,,-99.99,,2013-05-01 17:12:00,
2013-05-01 13:22:00,76.0,57.0,-100.00,South,190,4.0,13.0,51,0.00,,,-99.99,,2013-05-01 17:22:00,
2013-05-01 13:32:00,76.0,57.0,-100.00,South,190,9.0,12.0,51,0.00,,,-99.99,,2013-05-01 17:32:00,
2013-05-01 13:42:00,78.0,57.0,-100.00,SSE,160,9.0,12.0,49,0.00,,,-99.99,,2013-05-01 17:42:00,
2013-05-01 13:52:00,78.0,57.0,-100.00,SSE,160,9.0,12.0,49,0.00,,,-99.99,,2013-05-01 17:52:00,
2013-05-01 14:01:00,77.0,56.0,-100.00,SSE,150,4.0,10.0,49,0.00,,,-99.99,,2013-05-01 18:01:00,
2013-05-01 14:11:00,79.0,57.0,-100.00,South,180,10.0,12.0,47,0.00,,,-99.99,,2013-05-01 18:11:00,
2013-05-01 14:22:00,78.0,56.0,-100.00,SE,140,6.0,13.0,47,0.00,,,-99.99,,2013-05-01 18:22:00,
2013-05-01 14:32:00,79.0,56.0,-100.00,ESE,120,4.0,12.0,46,0.00,,,-99.99,,2013-05-01 18:32:00,
2013-05-01 14:42:00,79.0,56.0,-100.00,South,175,9.0,13.0,46,0.00,,,-99.99,,2013-05-01 18:42:00,
2013-05-01 14:52:00,79.0,57.0,-100.00,South,180,9.0,13.0,46,0.00,,,-99.99,,2013-05-01 18:52:00,
2013-05-01 15:02:00,80.0,57.0,-100.00,South,170,8.0,13.0,45,0.00,,,-99.99,,2013-05-01 19:02:00,
2013-05-01 15:11:00,80.0,57.0,-100.00,South,170,8.0,13.0,45,0.00,,,-99.99,,2013-05-01 19:11:00,
2013-05-01 15:22:00,79.0,56.0,-100.00,South,185,6.0,14.0,44,0.00,,,-99.99,,2013-05-01 19:22:00,
2013-05-01 15:32:00,80.0,56.0,-100.00,SE,145,5.0,11.0,43,0.00,,,-99.99,,2013-05-01 19:32:00,
2013-05-01 15:43:00,80.0,56.0,-100.00,SE,145,5.0,11.0,43,0.00,,,-99.99,,2013-05-01 19:43:00,
2013-05-01 15:52:00,80.0,55.0,-100.00,SSE,160,11.0,17.0,42,0.00,,,-99.99,,2013-05-01 19:52:00,
2013-05-01 16:02:00,80.0,55.0,-100.00,SSE,160,6.0,13.0,41,0.00,,,-99.99,,2013-05-01 20:02:00,
2013-05-01 16:11:00,81.0,55.0,-100.00,South,175,7.0,12.0,41,0.00,,,-99.99,,2013-05-01 20:11:00,
2013-05-01 16:22:00,81.0,55.0,-100.00,South,185,7.0,15.0,41,0.00,,,-99.99,,2013-05-01 20:22:00,
2013-05-01 16:32:00,80.0,55.0,-100.00,SSE,165,8.0,14.0,41,0.00,,,-99.99,,2013-05-01 20:32:00,
2013-05-01 16:42:00,80.0,55.0,-100.00,SE,145,6.0,12.0,41,0.00,,,-99.99,,2013-05-01 20:42:00,
2013-05-01 16:52:00,80.0,55.0,-100.00,SSE,155,7.0,15.0,41,0.00,,,-99.99,,2013-05-01 20:52:00,
2013-05-01 17:01:00,81.0,55.0,-100.00,South,175,7.0,14.0,40,0.00,,,-99.99,,2013-05-01 21:01:00,
2013-05-01 17:11:00,80.0,55.0,-100.00,South,190,6.0,14.0,40,0.00,,,-99.99,,2013-05-01 21:11:00,
2013-05-01 17:22:00,80.0,54.0,-100.00,SE,125,6.0,11.0,40,0.00,,,-99.99,,2013-05-01 21:22:00,
2013-05-01 17:32:00,80.0,53.0,-100.00,SE,145,9.0,14.0,39,0.00,,,-99.99,,2013-05-01 21:32:00,
2013-05-01 17:43:00,80.0,53.0,-100.00,SSE,165,8.0,11.0,39,0.00,,,-99.99,,2013-05-01 21:43:00,
2013-05-01 17:53:00,80.0,53.0,-100.00,South,175,6.0,12.0,39,0.00,,,-99.99,,2013-05-01 21:53:00,
2013-05-01 18:03:00,80.0,53.0,-100.00,South,190,7.0,12.0,38,0.00,,,-99.99,,2013-05-01 22:03:00,
2013-05-01 18:12:00,80.0,53.0,-100.00,SE,145,5.0,12.0,39,0.00,,,-99.99,,2013-05-01 22:12:00,
2013-05-01 18:23:00,80.0,53.0,-100.00,South,175,7.0,11.0,39,0.00,,,-99.99,,2013-05-01 22:23:00,
2013-05-01 18:33:00,80.0,53.0,-100.00,SSE,150,6.0,9.0,40,0.00,,,-99.99,,2013-05-01 22:33:00,
2013-05-01 18:42:00,79.0,53.0,-100.00,SSE,155,8.0,12.0,40,0.00,,,-99.99,,2013-05-01 22:42:00,
2013-05-01 18:52:00,79.0,53.0,-100.00,SSE,155,8.0,12.0,40,0.00,,,-99.99,,2013-05-01 22:52:00,
2013-05-01 19:02:00,79.0,54.0,-100.00,SSE,150,6.0,10.0,41,0.00,,,-99.99,,2013-05-01 23:02:00,
2013-05-01 19:12:00,79.0,53.0,-100.00,SE,140,5.0,10.0,41,0.00,,,-99.99,,2013-05-01 23:12:00,
2013-05-01 19:21:00,79.0,53.0,-100.00,SE,140,5.0,10.0,41,0.00,,,-99.99,,2013-05-01 23:21:00,
2013-05-01 19:32:00,78.0,53.0,-100.00,SE,140,7.0,12.0,41,0.00,,,-99.99,,2013-05-01 23:32:00,
2013-05-01 19:42:00,77.0,53.0,-100.00,SE,145,4.0,10.0,41,0.00,,,-99.99,,2013-05-01 23:42:00,
2013-05-01 19:52:00,77.0,52.0,-100.00,SE,145,4.0,11.0,42,0.00,,,-99.99,,2013-05-01 23:52:00,
2013-05-01 20:01:00,76.0,53.0,-100.00,SSE,150,3.0,6.0,43,0.00,,,-99.99,,2013-05-02 00:01:00,
2013-05-01 20:11:00,76.0,53.0,-100.00,SSE,150,3.0,6.0,43,0.00,,,-99.99,,2013-05-02 00:11:00,
2013-05-01 20:21:00,75.0,52.0,-100.00,SE,140,4.0,7.0,43,0.00,,,-99.99,,2013-05-02 00:21:00,
2013-05-01 20:32:00,75.0,52.0,-100.00,ESE,105,2.0,6.0,44,0.00,,,-99.99,,2013-05-02 00:32:00,
2013-05-01 20:42:00,74.0,52.0,-100.00,SE,130,2.0,8.0,44,0.00,,,-99.99,,2013-05-02 00:42:00,
2013-05-01 20:52:00,74.0,52.0,-100.00,SE,130,2.0,8.0,44,0.00,,,-99.99,,2013-05-02 00:52:00,
2013-05-01 21:01:00,73.0,51.0,-100.00,SE,125,2.0,4.0,46,0.00,,,-99.99,,2013-05-02 01:01:00,
2013-05-01 21:11:00,73.0,51.0,-100.00,SE,145,2.0,4.0,47,0.00,,,-99.99,,2013-05-02 01:11:00,
2013-05-01 21:21:00,72.0,51.0,-100.00,SSE,160,2.0,4.0,47,0.00,,,-99.99,,2013-05-02 01:21:00,
2013-05-01 21:32:00,72.0,51.0,-100.00,SSE,165,3.0,6.0,48,0.00,,,-99.99,,2013-05-02 01:32:00,
2013-05-01 21:42:00,71.0,51.0,-100.00,SSE,155,2.0,4.0,49,0.00,,,-99.99,,2013-05-02 01:42:00,
2013-05-01 21:52:00,70.0,51.0,-100.00,South,175,1.0,4.0,51,0.00,,,-99.99,,2013-05-02 01:52:00,
2013-05-01 22:02:00,70.0,51.0,-100.00,SSE,150,2.0,4.0,51,0.00,,,-99.99,,2013-05-02 02:02:00,
2013-05-01 22:12:00,69.0,51.0,-100.00,SE,145,1.0,3.0,52,0.00,,,-99.99,,2013-05-02 02:12:00,
2013-05-01 22:21:00,68.0,52.0,-100.00,SE,130,1.0,3.0,55,0.00,,,-99.99,,2013-05-02 02:21:00,
2013-05-01 22:32:00,68.0,51.0,-100.00,SSE,160,1.0,3.0,55,0.00,,,-99.99,,2013-05-02 02:32:00,
2013-05-01 22:42:00,68.0,51.0,-100.00,SSE,160,1.0,3.0,55,0.00,,,-99.99,,2013-05-02 02:42:00,
2013-05-01 22:51:00,68.0,51.0,-100.00,SSE,160,1.0,3.0,55,0.00,,,-99.99,,2013-05-02 02:51:00,
2013-05-01 23:01:00,68.0,51.0,-100.00,SSE,165,2.0,6.0,55,0.00,,,-99.99,,2013-05-02 03:01:00,
2013-05-01 23:11:00,67.0,51.0,-100.00,South,180,4.0,6.0,55,0.00,,,-99.99,,2013-05-02 03:11:00,
2013-05-01 23:22:00,67.0,51.0,-100.00,South,180,3.0,5.0,56,0.00,,,-99.99,,2013-05-02 03:22:00,
2013-05-01 23:33:00,66.0,51.0,-100.00,SE,145,2.0,4.0,58,0.00,,,-99.99,,2013-05-02 03:33:00,
2013-05-01 23:43:00,66.0,52.0,-100.00,ESE,120,2.0,6.0,59,0.00,,,-99.99,,2013-05-02 03:43:00,
2013-05-01 23:53:00,66.0,52.0,-100.00,ESE,120,2.0,6.0,59,0.00,,,-99.99,,2013-05-02 03:53:00,